Naval Air Station Key West

Airport
ICAO code: 
KNQX
Summary
ICAO Region: 
NAM
Territory: 
Location: 
Key West, Florida,
Coordinates: 
Aerial View: 
24° 34' 29.972" N, 81° 41' 18.289" W
Airport BS: 
Bird Strike
Metar
Observation
KNQX 241553Z 01011KT 10SM SCT024 19/12 A3007 RMK AO2 SLP181 T01940122 $
Station
Key West, Naval Air Station
Date/Time
2022-01-24 15:53:00
Wind direction
10°
Wind speed
11 kts
Lowest cloud amount
scattered clouds
Temperature
19.4°C
Dew point
12.2°C
Humidity
63%
Weather condition
n/a

Description

Naval Air Station Key West, or NAS Key West, is a military airport located on Boca Chica Key, 6 km east of the central business district of Key West, Florida.

Climatology

Tropical Savanna climate (Köppen climate classification Aw) - monthly mean temperatures above 18°C, and a pronounced dry season. A Tropical Savanna climate has more pronounced dry seasons than a Tropical Monsoon climate.

Runways

Designator Length Width Surface Rops
3/21 2134 46 PEM Yes/Yes
13/31 2134 46 PEM Yes/Yes
7/25 3048 61 PEM Yes/Yes
Airport map: 
Aerial View: 

SKYbrary Partners:

Safety knowledge contributed by: